• In India
  • List of Countries
  • For 7 days
  • Water Temperature
  • Satellite Maps
  • Weather Map
  • Weather Widgets
  • user-avatar
    Login

    Hourly Weather Niedbalki

    Today, 21 September, Friday

    Time Temperature Precipitation Wind Pressure Humidity
    00:00 +17°C° 0 mm 2 mps 745 mmHg 64%
    01:00 +17°C° 0 mm 2 mps 745 mmHg 66%
    02:00 +17°C° 0 mm 2 mps 745 mmHg 68%
    03:00 +16°C° 0 mm 2 mps 745 mmHg 70%
    04:00 +16°C° 0 mm 2 mps 745 mmHg 72%
    05:00 +16°C° 0 mm 2 mps 745 mmHg 71%
    06:00 +17°C° 0 mm 2 mps 744 mmHg 70%
    07:00 +18°C° 0 mm 2 mps 745 mmHg 68%
    08:00 +20°C° 0 mm 2 mps 744 mmHg 62%
    09:00 +21°C° 0 mm 3 mps 744 mmHg 56%
    10:00 +24°C° 0 mm 3 mps 744 mmHg 50%
    11:00 +26°C° 0 mm 3 mps 743 mmHg 46%
    12:00 +27°C° 0 mm 4 mps 743 mmHg 42%
    13:00 +28°C° 0 mm 3 mps 742 mmHg 37%
    14:00 +28°C° 0 mm 3 mps 742 mmHg 40%
    15:00 +27°C° 0 mm 3 mps 741 mmHg 43%
    16:00 +27°C° 0 mm 3 mps 741 mmHg 46%
    17:00 +25°C° 0 mm 4 mps 741 mmHg 50%
    18:00 +23°C° 0 mm 4 mps 741 mmHg 54%
    19:00 +21°C° 0 mm 5 mps 740 mmHg 58%
    20:00 +21°C° 0 mm 5 mps 740 mmHg 59%
    21:00 +20°C° 0 mm 5 mps 740 mmHg 59%
    22:00 +20°C° 0 mm 5 mps 739 mmHg 59%
    23:00 +20°C° 0 mm 5 mps 739 mmHg 60%

    Tomorrow, 22 September, Saturday

    Time Temperature Precipitation Wind Pressure Humidity
    00:00 +19°C° 0 mm 4 mps 739 mmHg 60%
    01:00 +19°C° 0 mm 4 mps 739 mmHg 61%
    02:00 +17°C° 0.2 mm 5 mps 740 mmHg 65%
    03:00 +17°C° 0.2 mm 6 mps 740 mmHg 69%
    04:00 +17°C° 0.2 mm 6 mps 741 mmHg 74%
    05:00 +16°C° 0.5 mm 6 mps 742 mmHg 77%
    06:00 +14°C° 0.5 mm 5 mps 743 mmHg 80%
    07:00 +13°C° 0.5 mm 5 mps 744 mmHg 83%
    08:00 +13°C° 0 mm 5 mps 744 mmHg 79%
    09:00 +14°C° 0 mm 4 mps 745 mmHg 74%
    10:00 +14°C° 0 mm 4 mps 745 mmHg 70%
    11:00 +14°C° 0 mm 4 mps 745 mmHg 66%
    12:00 +15°C° 0 mm 4 mps 745 mmHg 62%
    13:00 +15°C° 0 mm 4 mps 745 mmHg 58%
    14:00 +15°C° 0 mm 4 mps 745 mmHg 55%
    15:00 +17°C° 0 mm 3 mps 745 mmHg 53%
    16:00 +17°C° 0 mm 3 mps 744 mmHg 51%
    17:00 +16°C° 0 mm 3 mps 744 mmHg 54%
    18:00 +14°C° 0 mm 3 mps 745 mmHg 58%
    19:00 +13°C° 0 mm 3 mps 745 mmHg 62%
    20:00 +12°C° 0 mm 3 mps 745 mmHg 63%
    21:00 +12°C° 0 mm 2 mps 745 mmHg 65%
    22:00 +12°C° 0 mm 2 mps 745 mmHg 66%
    23:00 +11°C° 0 mm 3 mps 745 mmHg 66%

    Day after tomorrow, 23 September, Sunday

    Time Temperature Precipitation Wind Pressure Humidity
    00:00 +11°C° 0 mm 3 mps 745 mmHg 66%
    01:00 +11°C° 0 mm 3 mps 745 mmHg 66%
    02:00 +10°C° 0 mm 3 mps 745 mmHg 67%
    03:00 +10°C° 0 mm 3 mps 745 mmHg 68%
    04:00 +10°C° 0 mm 3 mps 744 mmHg 69%
    05:00 +10°C° 0 mm 3 mps 744 mmHg 68%
    06:00 +11°C° 0 mm 3 mps 744 mmHg 68%
    07:00 +12°C° 0 mm 4 mps 744 mmHg 67%
    08:00 +13°C° 0 mm 4 mps 744 mmHg 62%
    09:00 +14°C° 0 mm 4 mps 744 mmHg 58%
    10:00 +16°C° 0 mm 5 mps 744 mmHg 53%
    11:00 +16°C° 0.1 mm 5 mps 744 mmHg 53%
    12:00 +16°C° 0.1 mm 5 mps 744 mmHg 53%
    13:00 +16°C° 0.1 mm 5 mps 743 mmHg 53%
    14:00 +16°C° 0 mm 5 mps 743 mmHg 55%
    15:00 +15°C° 0 mm 4 mps 743 mmHg 56%
    16:00 +15°C° 0 mm 4 mps 742 mmHg 57%
    17:00 +14°C° 0 mm 3 mps 742 mmHg 61%
    18:00 +13°C° 0 mm 3 mps 741 mmHg 65%
    19:00 +13°C° 0 mm 2 mps 741 mmHg 68%
    20:00 +12°C° 0.4 mm 3 mps 739 mmHg 72%
    21:00 +12°C° 0.4 mm 4 mps 738 mmHg 76%
    22:00 +12°C° 0.4 mm 4 mps 737 mmHg 80%
    23:00 +11°C° 2 mm 6 mps 735 mmHg 79%

    24 September, Monday

    Time Temperature Precipitation Wind Pressure Humidity
    00:00 +12°C° 2 mm 7 mps 733 mmHg 77%
    01:00 +13°C° 2 mm 8 mps 731 mmHg 76%
    02:00 +13°C° 2.5 mm 8 mps 730 mmHg 79%
    03:00 +15°C° 2.5 mm 8 mps 729 mmHg 81%
    04:00 +15°C° 2.5 mm 8 mps 728 mmHg 84%
    05:00 +13°C° 0.3 mm 10 mps 729 mmHg 83%
    06:00 +10°C° 0.3 mm 12 mps 730 mmHg 82%
    07:00 +8°C° 0.3 mm 13 mps 731 mmHg 80%
    08:00 +8°C° 0.2 mm 12 mps 733 mmHg 79%
    09:00 +8°C° 0.2 mm 11 mps 736 mmHg 77%
    10:00 +8°C° 0.2 mm 10 mps 738 mmHg 76%
    11:00 +9°C° 0.2 mm 10 mps 739 mmHg 71%
    12:00 +11°C° 0.2 mm 11 mps 740 mmHg 67%
    13:00 +11°C° 0.2 mm 11 mps 741 mmHg 62%
    14:00 +11°C° 0.1 mm 10 mps 741 mmHg 60%
    15:00 +11°C° 0.1 mm 10 mps 742 mmHg 58%
    16:00 +10°C° 0.1 mm 9 mps 742 mmHg 56%
    17:00 +10°C° 0 mm 9 mps 743 mmHg 59%
    18:00 +9°C° 0 mm 8 mps 744 mmHg 62%
    19:00 +8°C° 0 mm 7 mps 744 mmHg 64%
    20:00 +6°C° 0 mm 7 mps 745 mmHg 66%
    21:00 +6°C° 0 mm 7 mps 746 mmHg 68%
    22:00 +7°C° 0 mm 6 mps 746 mmHg 70%
    23:00 +5°C° 0 mm 6 mps 747 mmHg 71%

    25 September, Tuesday

    Time Temperature Precipitation Wind Pressure Humidity
    00:00 +5°C° 0 mm 6 mps 747 mmHg 71%
    01:00 +5°C° 0 mm 6 mps 748 mmHg 72%
    02:00 +5°C° 0 mm 5 mps 748 mmHg 73%
    03:00 +5°C° 0 mm 5 mps 749 mmHg 74%
    04:00 +5°C° 0 mm 5 mps 749 mmHg 76%
    05:00 +5°C° 0 mm 5 mps 750 mmHg 74%
    06:00 +4°C° 0 mm 6 mps 750 mmHg 73%
    07:00 +5°C° 0 mm 6 mps 751 mmHg 72%
    08:00 +7°C° 0 mm 6 mps 751 mmHg 64%
    09:00 +9°C° 0 mm 7 mps 751 mmHg 56%
    10:00 +10°C° 0 mm 7 mps 752 mmHg 48%
    11:00 +10°C° 0 mm 7 mps 752 mmHg 46%
    12:00 +11°C° 0 mm 7 mps 752 mmHg 44%
    13:00 +11°C° 0 mm 6 mps 752 mmHg 42%
    14:00 +11°C° 0 mm 6 mps 751 mmHg 43%
    15:00 +12°C° 0 mm 5 mps 751 mmHg 44%
    16:00 +10°C° 0 mm 5 mps 751 mmHg 44%
    17:00 +10°C° 0 mm 5 mps 751 mmHg 47%
    18:00 +9°C° 0 mm 5 mps 750 mmHg 50%
    19:00 +8°C° 0 mm 5 mps 750 mmHg 53%
    20:00 +8°C° 0.1 mm 5 mps 750 mmHg 56%
    21:00 +8°C° 0.1 mm 6 mps 749 mmHg 58%
    22:00 +8°C° 0.1 mm 7 mps 749 mmHg 61%
    23:00 +8°C° 0.9 mm 7 mps 748 mmHg 67%

    26 September, Wednesday

    Time Temperature Precipitation Wind Pressure Humidity
    00:00 +6°C° 0.9 mm 7 mps 748 mmHg 74%
    01:00 +6°C° 0.9 mm 7 mps 747 mmHg 81%
    02:00 +6°C° 0.2 mm 7 mps 747 mmHg 81%
    03:00 +5°C° 0.2 mm 6 mps 748 mmHg 82%
    04:00 +6°C° 0.2 mm 5 mps 748 mmHg 83%
    05:00 +6°C° 0 mm 5 mps 748 mmHg 82%
    06:00 +5°C° 0 mm 6 mps 749 mmHg 80%
    07:00 +5°C° 0 mm 6 mps 749 mmHg 79%
    08:00 +8°C° 0 mm 6 mps 749 mmHg 72%
    09:00 +9°C° 0 mm 7 mps 750 mmHg 65%
    10:00 +10°C° 0 mm 7 mps 750 mmHg 59%
    11:00 +11°C° 0 mm 7 mps 750 mmHg 58%
    12:00 +11°C° 0 mm 7 mps 751 mmHg 58%
    13:00 +11°C° 0 mm 6 mps 751 mmHg 58%
    14:00 +13°C° 0 mm 6 mps 751 mmHg 59%
    15:00 +13°C° 0 mm 5 mps 751 mmHg 59%
    16:00 +13°C° 0 mm 4 mps 752 mmHg 60%
    17:00 +11°C° 0 mm 4 mps 752 mmHg 65%
    18:00 +10°C° 0 mm 3 mps 752 mmHg 69%
    19:00 +9°C° 0 mm 2 mps 753 mmHg 73%
    20:00 +9°C° 0 mm 2 mps 753 mmHg 74%
    21:00 +8°C° 0 mm 2 mps 753 mmHg 74%
    22:00 +8°C° 0 mm 2 mps 753 mmHg 75%
    23:00 +8°C° 0 mm 2 mps 753 mmHg 77%
    Show more